contact:dominique.lefevre@mio.osupytheas.fr, maurice.libes@osupytheas.fr, didier.mallarino@osupytheas.fr
Project:EMSO http://www.emso-fr.org/EMSO-France
Depth: 2436.0 m
Title:EMSO Ligure Ouest : Data MII capteur CSTAR
DateTime,Latitude,Longitude,Instrument_Serial,Reference_Counts,Signal_Counts,Corrected_Signal_raw_counts,Calculated_Beam_c_inverse_meters,Internal_thermistor_counts
DateTime,Latitude,Longitude,Instrument_Serial,Reference_Counts,Signal_Counts,Corrected_Signal_raw_counts,Calculated_Beam_c_inverse_meters,Internal_thermistor_counts
2023-07-17T00:00:32,42.805,6.029,CST-1368DR,4249,4607,11506,01.222,552
2023-07-17T00:03:34,42.805,6.029,CST-1368DR,4249,4609,11510,01.220,552
2023-07-17T00:06:35,42.805,6.029,CST-1368DR,4249,4609,11511,01.220,552
2023-07-17T00:09:37,42.805,6.029,CST-1368DR,4249,4610,11513,01.219,552
2023-07-17T00:12:38,42.805,6.029,CST-1368DR,4249,4610,11514,01.219,552
2023-07-17T00:15:40,42.805,6.029,CST-1368DR,4249,4609,11510,01.220,552
2023-07-17T00:18:41,42.805,6.029,CST-1368DR,4249,4609,11511,01.220,552
2023-07-17T00:21:43,42.805,6.029,CST-1368DR,4249,4609,11509,01.221,552
2023-07-17T00:24:45,42.805,6.029,CST-1368DR,4249,4609,11511,01.220,552
2023-07-17T00:27:46,42.805,6.029,CST-1368DR,4249,4610,11513,01.219,552
2023-07-17T00:30:48,42.805,6.029,CST-1368DR,4249,4604,11498,01.224,552
2023-07-17T00:33:49,42.805,6.029,CST-1368DR,4249,4607,11505,01.222,552
2023-07-17T00:36:51,42.805,6.029,CST-1368DR,4249,4609,11509,01.221,552
2023-07-17T00:39:53,42.805,6.029,CST-1368DR,4249,4607,11506,01.222,552
2023-07-17T00:42:54,42.805,6.029,CST-1368DR,4249,4609,11511,01.220,552
2023-07-17T00:45:56,42.805,6.029,CST-1368DR,4249,4609,11510,01.220,552
2023-07-17T00:48:57,42.805,6.029,CST-1368DR,4249,4610,11513,01.219,552
2023-07-17T00:51:59,42.805,6.029,CST-1368DR,4249,4607,11506,01.222,552
2023-07-17T00:55:00,42.805,6.029,CST-1368DR,4249,4608,11509,01.221,552
2023-07-17T00:58:02,42.805,6.029,CST-1368DR,4249,4609,11511,01.220,552
2023-07-17T01:01:04,42.805,6.029,CST-1368DR,4249,4592,11468,01.235,552
2023-07-17T01:04:05,42.805,6.029,CST-1368DR,4249,4610,11513,01.219,552
2023-07-17T01:07:07,42.805,6.029,CST-1368DR,4249,4608,11509,01.221,552
2023-07-17T01:10:08,42.805,6.029,CST-1368DR,4249,4609,11511,01.220,552
2023-07-17T01:13:10,42.805,6.029,CST-1368DR,4249,4609,11511,01.220,552
2023-07-17T01:16:11,42.805,6.029,CST-1368DR,4249,4610,11513,01.219,552
2023-07-17T01:19:13,42.805,6.029,CST-1368DR,4249,4609,11511,01.220,552
2023-07-17T01:22:15,42.805,6.029,CST-1368DR,4249,4609,11511,01.220,552
2023-07-17T01:25:16,42.805,6.029,CST-1368DR,4249,4610,11513,01.219,552
2023-07-17T01:28:18,42.805,6.029,CST-1368DR,4249,4609,11509,01.221,552
2023-07-17T01:31:19,42.805,6.029,CST-1368DR,4249,4609,11511,01.220,552
2023-07-17T01:34:21,42.805,6.029,CST-1368DR,4249,4609,11511,01.220,552
2023-07-17T01:37:23,42.805,6.029,CST-1368DR,4249,4609,11511,01.220,552
2023-07-17T01:40:24,42.805,6.029,CST-1368DR,4249,4610,11514,01.219,552
2023-07-17T01:43:26,42.805,6.029,CST-1368DR,4249,4610,11513,01.219,552
2023-07-17T01:46:27,42.805,6.029,CST-1368DR,4249,4609,11510,01.220,552
2023-07-17T01:49:29,42.805,6.029,CST-1368DR,4249,4609,11511,01.220,552
2023-07-17T01:52:30,42.805,6.029,CST-1368DR,4249,4610,11513,01.219,552
2023-07-17T01:55:32,42.805,6.029,CST-1368DR,4249,4609,11511,01.220,552
2023-07-17T01:58:34,42.805,6.029,CST-1368DR,4249,4609,11509,01.221,552
2023-07-17T02:01:35,42.805,6.029,CST-1368DR,4249,4609,11511,01.220,552
2023-07-17T02:04:37,42.805,6.029,CST-1368DR,4249,4602,11493,01.226,552
2023-07-17T02:07:38,42.805,6.029,CST-1368DR,4249,4604,11499,01.224,552
2023-07-17T02:10:40,42.805,6.029,CST-1368DR,4249,4604,11498,01.224,552
2023-07-17T02:13:41,42.805,6.029,CST-1368DR,4249,4606,11503,01.223,552
2023-07-17T02:16:43,42.805,6.029,CST-1368DR,4249,4606,11502,01.223,552
2023-07-17T02:19:45,42.805,6.029,CST-1368DR,4249,4602,11493,01.226,552
2023-07-17T02:22:46,42.805,6.029,CST-1368DR,4249,4605,11501,01.223,552
2023-07-17T02:25:48,42.805,6.029,CST-1368DR,4249,4603,11496,01.225,552
2023-07-17T02:28:49,42.805,6.029,CST-1368DR,4249,4604,11498,01.224,552
2023-07-17T02:31:51,42.805,6.029,CST-1368DR,4249,4605,11500,01.224,552
2023-07-17T02:34:52,42.805,6.029,CST-1368DR,4249,4606,11503,01.223,552
2023-07-17T02:37:54,42.805,6.029,CST-1368DR,4249,4601,11490,01.227,552
2023-07-17T02:40:56,42.805,6.029,CST-1368DR,4249,4617,11529,01.214,552
2023-07-17T02:43:57,42.805,6.029,CST-1368DR,4249,4617,11531,01.213,552
2023-07-17T02:46:59,42.805,6.029,CST-1368DR,4249,4616,11528,01.214,552
2023-07-17T02:50:00,42.805,6.029,CST-1368DR,4249,4617,11531,01.213,552
2023-07-17T02:53:02,42.805,6.029,CST-1368DR,4249,4616,11528,01.214,552
2023-07-17T02:56:04,42.805,6.029,CST-1368DR,4249,4618,11532,01.213,552
2023-07-17T02:59:05,42.805,6.029,CST-1368DR,4249,4617,11531,01.213,552
2023-07-17T03:02:07,42.805,6.029,CST-1368DR,4249,4618,11533,01.212,552
2023-07-17T03:05:08,42.805,6.029,CST-1368DR,4249,4618,11533,01.212,552
2023-07-17T03:08:10,42.805,6.029,CST-1368DR,4249,4617,11531,01.213,552
2023-07-17T03:11:11,42.805,6.029,CST-1368DR,4249,4617,11531,01.213,552
2023-07-17T03:14:13,42.805,6.029,CST-1368DR,4249,4617,11531,01.213,552
2023-07-17T03:17:15,42.805,6.029,CST-1368DR,4249,4618,11533,01.212,552
2023-07-17T03:20:16,42.805,6.029,CST-1368DR,4249,4618,11533,01.212,552
2023-07-17T03:23:18,42.805,6.029,CST-1368DR,4249,4618,11533,01.212,552
2023-07-17T03:26:19,42.805,6.029,CST-1368DR,4249,4617,11531,01.213,552
2023-07-17T03:29:21,42.805,6.029,CST-1368DR,4249,4618,11533,01.212,552
2023-07-17T03:32:23,42.805,6.029,CST-1368DR,4249,4618,11533,01.212,552
2023-07-17T03:35:24,42.805,6.029,CST-1368DR,4249,4618,11532,01.213,552
2023-07-17T03:38:26,42.805,6.029,CST-1368DR,4249,4614,11524,01.215,552
2023-07-17T03:41:27,42.805,6.029,CST-1368DR,4249,4615,11525,01.215,552
2023-07-17T03:44:29,42.805,6.029,CST-1368DR,4249,4613,11520,01.217,552
2023-07-17T03:47:30,42.805,6.029,CST-1368DR,4249,4615,11526,01.215,552
2023-07-17T03:50:32,42.805,6.029,CST-1368DR,4249,4612,11518,01.218,552
2023-07-17T03:53:34,42.805,6.029,CST-1368DR,4249,4614,11522,01.216,552
2023-07-17T03:56:35,42.805,6.029,CST-1368DR,4249,4613,11519,01.217,552
2023-07-17T03:59:37,42.805,6.029,CST-1368DR,4249,4612,11519,01.217,552
2023-07-17T04:02:38,42.805,6.029,CST-1368DR,4249,4613,11520,01.217,552
2023-07-17T04:05:40,42.805,6.029,CST-1368DR,4249,4614,11524,01.215,552
2023-07-17T04:08:41,42.805,6.029,CST-1368DR,4249,4613,11520,01.217,552
2023-07-17T04:11:43,42.805,6.029,CST-1368DR,4249,4612,11517,01.218,552
2023-07-17T04:14:45,42.805,6.029,CST-1368DR,4249,4611,11516,01.218,552
2023-07-17T04:17:46,42.805,6.029,CST-1368DR,4249,4613,11519,01.217,552
2023-07-17T04:20:48,42.805,6.029,CST-1368DR,4249,4614,11523,01.216,552
2023-07-17T04:23:49,42.805,6.029,CST-1368DR,4249,4611,11514,01.219,552
2023-07-17T04:26:51,42.805,6.029,CST-1368DR,4249,4612,11518,01.218,552
2023-07-17T04:29:53,42.805,6.029,CST-1368DR,4249,4614,11522,01.216,552
2023-07-17T04:32:55,42.805,6.029,CST-1368DR,4249,4609,11509,01.221,552
2023-07-17T04:35:56,42.805,6.029,CST-1368DR,4249,4613,11520,01.217,552
2023-07-17T04:38:58,42.805,6.029,CST-1368DR,4249,4612,11519,01.217,552
2023-07-17T04:41:59,42.805,6.029,CST-1368DR,4249,4612,11518,01.218,552
2023-07-17T04:45:01,42.805,6.029,CST-1368DR,4248,4614,11526,01.215,552
2023-07-17T04:48:03,42.805,6.029,CST-1368DR,4249,4613,11519,01.217,552
2023-07-17T04:51:04,42.805,6.029,CST-1368DR,4249,4614,11522,01.216,552
2023-07-17T04:54:06,42.805,6.029,CST-1368DR,4249,4614,11523,01.216,552
2023-07-17T04:57:07,42.805,6.029,CST-1368DR,4249,4612,11519,01.217,552
2023-07-17T05:00:09,42.805,6.029,CST-1368DR,4249,4613,11521,01.216,552
2023-07-17T05:03:10,42.805,6.029,CST-1368DR,4249,4614,11523,01.216,552
2023-07-17T05:06:12,42.805,6.029,CST-1368DR,4249,4612,11519,01.217,552
2023-07-17T05:09:14,42.805,6.029,CST-1368DR,4249,4608,11507,01.221,552
2023-07-17T05:12:15,42.805,6.029,CST-1368DR,4249,4615,11524,01.215,552
2023-07-17T05:15:17,42.805,6.029,CST-1368DR,4249,4613,11521,01.216,552
2023-07-17T05:18:18,42.805,6.029,CST-1368DR,4249,4613,11519,01.217,552
2023-07-17T05:21:20,42.805,6.029,CST-1368DR,4249,4614,11523,01.216,552
2023-07-17T05:24:22,42.805,6.029,CST-1368DR,4249,4614,11522,01.216,552
2023-07-17T05:27:23,42.805,6.029,CST-1368DR,4249,4613,11521,01.216,552
2023-07-17T05:30:25,42.805,6.029,CST-1368DR,4249,4614,11524,01.215,552
2023-07-17T05:33:26,42.805,6.029,CST-1368DR,4249,4613,11520,01.217,552
2023-07-17T05:36:28,42.805,6.029,CST-1368DR,4249,4614,11522,01.216,552
2023-07-17T05:39:29,42.805,6.029,CST-1368DR,4249,4612,11519,01.217,552
2023-07-17T05:42:31,42.805,6.029,CST-1368DR,4249,4612,11518,01.218,552
2023-07-17T05:45:33,42.805,6.029,CST-1368DR,4249,4612,11519,01.217,552
2023-07-17T05:48:34,42.805,6.029,CST-1368DR,4249,4612,11518,01.218,552
2023-07-17T05:51:36,42.805,6.029,CST-1368DR,4249,4613,11520,01.217,552
2023-07-17T05:54:37,42.805,6.029,CST-1368DR,4249,4612,11518,01.218,552
2023-07-17T05:57:39,42.805,6.029,CST-1368DR,4249,4614,11522,01.216,552
2023-07-17T06:00:41,42.805,6.029,CST-1368DR,4249,4612,11519,01.217,552
2023-07-17T06:03:42,42.805,6.029,CST-1368DR,4249,4613,11521,01.216,552
2023-07-17T06:06:44,42.805,6.029,CST-1368DR,4249,4613,11521,01.216,552
2023-07-17T06:09:45,42.805,6.029,CST-1368DR,4248,4613,11523,01.216,552
2023-07-17T06:12:47,42.805,6.029,CST-1368DR,4248,4612,11520,01.217,552
2023-07-17T06:15:48,42.805,6.029,CST-1368DR,4248,4611,11518,01.218,553
2023-07-17T06:18:50,42.805,6.029,CST-1368DR,4248,4613,11524,01.215,552
2023-07-17T06:21:52,42.805,6.029,CST-1368DR,4248,4612,11521,01.216,552
2023-07-17T06:24:53,42.805,6.029,CST-1368DR,4248,4612,11520,01.217,552
2023-07-17T06:27:55,42.805,6.029,CST-1368DR,4249,4613,11520,01.217,552
2023-07-17T06:30:58,42.805,6.029,CST-1368DR,4249,4613,11521,01.216,552
2023-07-17T06:34:00,42.805,6.029,CST-1368DR,4249,4612,11518,01.218,552
2023-07-17T06:37:02,42.805,6.029,CST-1368DR,4249,4614,11522,01.216,552
2023-07-17T06:40:03,42.805,6.029,CST-1368DR,4249,4613,11520,01.217,552
2023-07-17T06:43:05,42.805,6.029,CST-1368DR,4249,4614,11522,01.216,552
2023-07-17T06:46:06,42.805,6.029,CST-1368DR,4249,4613,11520,01.217,552
2023-07-17T06:49:08,42.805,6.029,CST-1368DR,4248,4612,11520,01.217,552
2023-07-17T06:52:09,42.805,6.029,CST-1368DR,4248,4614,11526,01.215,552
2023-07-17T06:55:11,42.805,6.029,CST-1368DR,4248,4613,11523,01.216,552
2023-07-17T06:58:13,42.805,6.029,CST-1368DR,4249,4614,11523,01.216,552
2023-07-17T07:01:14,42.805,6.029,CST-1368DR,4249,4613,11520,01.217,552
2023-07-17T07:04:16,42.805,6.029,CST-1368DR,4248,4613,11522,01.216,552
2023-07-17T07:07:17,42.805,6.029,CST-1368DR,4248,4613,11524,01.215,552
2023-07-17T07:10:19,42.805,6.029,CST-1368DR,4248,4613,11523,01.216,552
2023-07-17T07:13:20,42.805,6.029,CST-1368DR,4248,4612,11521,01.216,552
2023-07-17T07:16:22,42.805,6.029,CST-1368DR,4248,4614,11526,01.215,552
2023-07-17T07:19:24,42.805,6.029,CST-1368DR,4248,4613,11523,01.216,552
2023-07-17T07:22:25,42.805,6.029,CST-1368DR,4248,4612,11520,01.217,552
2023-07-17T07:25:27,42.805,6.029,CST-1368DR,4248,4614,11525,01.215,552
2023-07-17T07:28:28,42.805,6.029,CST-1368DR,4248,4613,11524,01.215,552
2023-07-17T07:31:30,42.805,6.029,CST-1368DR,4248,4615,11527,01.214,552
2023-07-17T07:34:32,42.805,6.029,CST-1368DR,4248,4612,11521,01.216,552
2023-07-17T07:37:33,42.805,6.029,CST-1368DR,4248,4612,11521,01.216,552
2023-07-17T07:40:35,42.805,6.029,CST-1368DR,4248,4614,11525,01.215,552
2023-07-17T07:43:36,42.805,6.029,CST-1368DR,4248,4613,11524,01.215,552
2023-07-17T07:46:38,42.805,6.029,CST-1368DR,4248,4612,11520,01.217,552
2023-07-17T07:49:39,42.805,6.029,CST-1368DR,4248,4611,11519,01.217,552
2023-07-17T07:52:41,42.805,6.029,CST-1368DR,4248,4610,11515,01.219,552
2023-07-17T07:55:43,42.805,6.029,CST-1368DR,4248,4613,11523,01.216,552
2023-07-17T07:58:44,42.805,6.029,CST-1368DR,4248,4613,11524,01.215,552
2023-07-17T08:01:46,42.805,6.029,CST-1368DR,4248,4613,11522,01.216,552
2023-07-17T08:04:47,42.805,6.029,CST-1368DR,4248,4613,11524,01.215,552
2023-07-17T08:07:49,42.805,6.029,CST-1368DR,4248,4613,11524,01.215,552
2023-07-17T08:10:50,42.805,6.029,CST-1368DR,4248,4612,11520,01.217,552
2023-07-17T08:13:52,42.805,6.029,CST-1368DR,4248,4612,11521,01.216,552
2023-07-17T08:16:54,42.805,6.029,CST-1368DR,4248,4614,11525,01.215,552
2023-07-17T08:19:55,42.805,6.029,CST-1368DR,4248,4614,11525,01.215,552
2023-07-17T08:22:57,42.805,6.029,CST-1368DR,4248,4613,11523,01.216,552
2023-07-17T08:25:58,42.805,6.029,CST-1368DR,4248,4613,11523,01.216,552
2023-07-17T08:29:00,42.805,6.029,CST-1368DR,4248,4613,11523,01.216,552
2023-07-17T08:32:01,42.805,6.029,CST-1368DR,4248,4614,11525,01.215,552
2023-07-17T08:35:03,42.805,6.029,CST-1368DR,4248,4613,11522,01.216,552
2023-07-17T08:38:04,42.805,6.029,CST-1368DR,4248,4613,11522,01.216,552
2023-07-17T08:41:06,42.805,6.029,CST-1368DR,4248,4612,11521,01.216,552
2023-07-17T08:44:08,42.805,6.029,CST-1368DR,4248,4613,11523,01.216,552
2023-07-17T08:47:09,42.805,6.029,CST-1368DR,4248,4609,11514,01.219,552
2023-07-17T08:50:11,42.805,6.029,CST-1368DR,4248,4612,11521,01.216,552
2023-07-17T08:53:12,42.805,6.029,CST-1368DR,4248,4612,11521,01.216,552
2023-07-17T08:56:14,42.805,6.029,CST-1368DR,4248,4612,11521,01.216,552
2023-07-17T08:59:15,42.805,6.029,CST-1368DR,4248,4613,11523,01.216,552
2023-07-17T09:02:17,42.805,6.029,CST-1368DR,4248,4614,11525,01.215,552
2023-07-17T09:05:19,42.805,6.029,CST-1368DR,4248,4613,11523,01.216,552
2023-07-17T09:08:20,42.805,6.029,CST-1368DR,4248,4613,11523,01.216,552
2023-07-17T09:11:22,42.805,6.029,CST-1368DR,4248,4614,11525,01.215,552
2023-07-17T09:14:23,42.805,6.029,CST-1368DR,4248,4612,11520,01.217,552
2023-07-17T09:17:25,42.805,6.029,CST-1368DR,4248,4613,11524,01.215,552
2023-07-17T09:20:26,42.805,6.029,CST-1368DR,4248,4612,11521,01.216,552
2023-07-17T09:23:28,42.805,6.029,CST-1368DR,4248,4613,11522,01.216,552
2023-07-17T09:26:30,42.805,6.029,CST-1368DR,4248,4612,11520,01.217,552
2023-07-17T09:29:31,42.805,6.029,CST-1368DR,4248,4613,11522,01.216,552
2023-07-17T09:32:33,42.805,6.029,CST-1368DR,4248,4612,11521,01.216,552
2023-07-17T09:35:34,42.805,6.029,CST-1368DR,4248,4612,11521,01.216,552
2023-07-17T09:38:36,42.805,6.029,CST-1368DR,4248,4611,11519,01.217,552
2023-07-17T09:41:38,42.805,6.029,CST-1368DR,4248,4611,11519,01.217,552
2023-07-17T09:44:39,42.805,6.029,CST-1368DR,4248,4612,11521,01.216,552
2023-07-17T09:47:41,42.805,6.029,CST-1368DR,4248,4613,11522,01.216,552
2023-07-17T09:50:42,42.805,6.029,CST-1368DR,4248,4612,11521,01.216,552
2023-07-17T09:53:44,42.805,6.029,CST-1368DR,4248,4610,11516,01.218,552
2023-07-17T09:56:45,42.805,6.029,CST-1368DR,4248,4612,11521,01.216,552
2023-07-17T09:59:47,42.805,6.029,CST-1368DR,4248,4612,11521,01.216,552
2023-07-17T10:02:49,42.805,6.029,CST-1368DR,4248,4612,11521,01.216,552
2023-07-17T10:05:50,42.805,6.029,CST-1368DR,4248,4612,11520,01.217,552
2023-07-17T10:08:52,42.805,6.029,CST-1368DR,4248,4612,11521,01.216,552
2023-07-17T10:11:53,42.805,6.029,CST-1368DR,4248,4611,11519,01.217,552
2023-07-17T10:14:55,42.805,6.029,CST-1368DR,4248,4612,11521,01.216,552
2023-07-17T10:17:57,42.805,6.029,CST-1368DR,4248,4612,11521,01.216,552
2023-07-17T10:20:58,42.805,6.029,CST-1368DR,4248,4612,11521,01.216,552
2023-07-17T10:24:00,42.805,6.029,CST-1368DR,4248,4613,11522,01.216,552
2023-07-17T10:27:01,42.805,6.029,CST-1368DR,4248,4612,11521,01.216,552
2023-07-17T10:30:03,42.805,6.029,CST-1368DR,4248,4612,11521,01.216,552
2023-07-17T10:33:04,42.805,6.029,CST-1368DR,4248,4611,11519,01.217,552
2023-07-17T10:36:06,42.805,6.029,CST-1368DR,4248,4611,11519,01.217,552
2023-07-17T10:39:08,42.805,6.029,CST-1368DR,4248,4612,11521,01.216,552
2023-07-17T10:42:09,42.805,6.029,CST-1368DR,4248,4612,11521,01.216,552
2023-07-17T10:45:11,42.805,6.029,CST-1368DR,4248,4612,11520,01.217,552
2023-07-17T10:48:12,42.805,6.029,CST-1368DR,4248,4612,11521,01.216,552
2023-07-17T10:51:14,42.805,6.029,CST-1368DR,4248,4612,11520,01.217,552
2023-07-17T10:54:15,42.805,6.029,CST-1368DR,4248,4611,11519,01.217,552
2023-07-17T10:57:17,42.805,6.029,CST-1368DR,4248,4611,11519,01.217,552
2023-07-17T11:00:19,42.805,6.029,CST-1368DR,4248,4611,11519,01.217,552
2023-07-17T11:03:20,42.805,6.029,CST-1368DR,4248,4612,11520,01.217,552
2023-07-17T11:06:22,42.805,6.029,CST-1368DR,4248,4611,11518,01.218,552
2023-07-17T11:09:23,42.805,6.029,CST-1368DR,4248,4613,11523,01.216,552
2023-07-17T11:12:25,42.805,6.029,CST-1368DR,4248,4612,11520,01.217,552
2023-07-17T11:15:26,42.805,6.029,CST-1368DR,4248,4611,11518,01.218,552
2023-07-17T11:18:28,42.805,6.029,CST-1368DR,4248,4611,11519,01.217,552
2023-07-17T11:21:30,42.805,6.029,CST-1368DR,4248,4610,11516,01.218,552
2023-07-17T11:24:31,42.805,6.029,CST-1368DR,4248,4611,11519,01.217,552
2023-07-17T11:27:33,42.805,6.029,CST-1368DR,4248,4611,11517,01.218,552
2023-07-17T11:30:34,42.805,6.029,CST-1368DR,4248,4611,11519,01.217,552
2023-07-17T11:33:36,42.805,6.029,CST-1368DR,4248,4611,11519,01.217,552
2023-07-17T11:36:38,42.805,6.029,CST-1368DR,4248,4612,11521,01.216,552
2023-07-17T11:39:39,42.805,6.029,CST-1368DR,4248,4611,11518,01.218,552
2023-07-17T11:42:41,42.805,6.029,CST-1368DR,4248,4611,11518,01.218,552
2023-07-17T11:45:42,42.805,6.029,CST-1368DR,4248,4611,11519,01.217,552
2023-07-17T11:48:44,42.805,6.029,CST-1368DR,4248,4612,11520,01.217,552
2023-07-17T11:51:45,42.805,6.029,CST-1368DR,4248,4612,11520,01.217,552
2023-07-17T11:54:47,42.805,6.029,CST-1368DR,4248,4612,11521,01.216,552
2023-07-17T11:57:49,42.805,6.029,CST-1368DR,4248,4611,11518,01.218,552
2023-07-17T12:00:50,42.805,6.029,CST-1368DR,4248,4612,11520,01.217,552
2023-07-17T12:03:52,42.805,6.029,CST-1368DR,4248,4612,11521,01.216,552
2023-07-17T12:06:53,42.805,6.029,CST-1368DR,4248,4611,11519,01.217,552
2023-07-17T12:09:55,42.805,6.029,CST-1368DR,4248,4611,11519,01.217,552
2023-07-17T12:12:57,42.805,6.029,CST-1368DR,4248,4610,11516,01.218,552
2023-07-17T12:15:58,42.805,6.029,CST-1368DR,4248,4611,11519,01.217,552
2023-07-17T12:19:00,42.805,6.029,CST-1368DR,4248,4611,11518,01.218,552
2023-07-17T12:22:01,42.805,6.029,CST-1368DR,4248,4611,11518,01.218,552
2023-07-17T12:25:03,42.805,6.029,CST-1368DR,4248,4609,11514,01.219,552
2023-07-17T12:28:04,42.805,6.029,CST-1368DR,4248,4608,11511,01.220,552
2023-07-17T12:31:07,42.805,6.029,CST-1368DR,4248,4608,11510,01.220,552
2023-07-17T12:34:08,42.805,6.029,CST-1368DR,4248,4605,11503,01.223,552
2023-07-17T12:37:10,42.805,6.029,CST-1368DR,4248,4605,11503,01.223,552
2023-07-17T12:40:11,42.805,6.029,CST-1368DR,4248,4603,11498,01.224,552
2023-07-17T12:43:13,42.805,6.029,CST-1368DR,4248,4603,11498,01.224,552
2023-07-17T12:46:14,42.805,6.029,CST-1368DR,4248,4601,11494,01.226,552
2023-07-17T12:49:16,42.805,6.029,CST-1368DR,4248,4603,11498,01.224,552
2023-07-17T12:52:18,42.805,6.029,CST-1368DR,4248,4604,11500,01.224,552
2023-07-17T12:55:19,42.805,6.029,CST-1368DR,4248,4602,11496,01.225,552
2023-07-17T12:58:21,42.805,6.029,CST-1368DR,4248,4603,11497,01.225,552
2023-07-17T13:01:22,42.805,6.029,CST-1368DR,4248,4602,11496,01.225,552
2023-07-17T13:04:24,42.805,6.029,CST-1368DR,4248,4602,11495,01.226,552
2023-07-17T13:07:26,42.805,6.029,CST-1368DR,4248,4602,11495,01.226,552
2023-07-17T13:10:27,42.805,6.029,CST-1368DR,4248,4601,11493,01.226,552
2023-07-17T13:13:29,42.805,6.029,CST-1368DR,4248,4601,11493,01.226,552
2023-07-17T13:16:30,42.805,6.029,CST-1368DR,4248,4601,11493,01.226,552
2023-07-17T13:19:32,42.805,6.029,CST-1368DR,4248,4602,11495,01.226,552
2023-07-17T13:22:33,42.805,6.029,CST-1368DR,4248,4602,11495,01.226,552
2023-07-17T13:25:35,42.805,6.029,CST-1368DR,4248,4602,11496,01.225,552
2023-07-17T13:28:37,42.805,6.029,CST-1368DR,4248,4599,11488,01.228,552
2023-07-17T13:31:38,42.805,6.029,CST-1368DR,4248,4601,11494,01.226,552
2023-07-17T13:34:40,42.805,6.029,CST-1368DR,4248,4600,11491,01.227,553
2023-07-17T13:37:41,42.805,6.029,CST-1368DR,4248,4601,11493,01.226,552
2023-07-17T13:40:43,42.805,6.029,CST-1368DR,4248,4601,11493,01.226,552
2023-07-17T13:43:44,42.805,6.029,CST-1368DR,4248,4601,11494,01.226,552
2023-07-17T13:46:46,42.805,6.029,CST-1368DR,4248,4600,11491,01.227,552
2023-07-17T13:49:48,42.805,6.029,CST-1368DR,4248,4601,11492,01.227,552
2023-07-17T13:52:49,42.805,6.029,CST-1368DR,4248,4601,11493,01.226,552
2023-07-17T13:55:51,42.805,6.029,CST-1368DR,4248,4601,11493,01.226,552
2023-07-17T13:58:52,42.805,6.029,CST-1368DR,4248,4599,11488,01.228,552
2023-07-17T14:01:54,42.805,6.029,CST-1368DR,4248,4602,11495,01.226,552
2023-07-17T14:04:55,42.805,6.029,CST-1368DR,4248,4601,11493,01.226,552
2023-07-17T14:07:57,42.805,6.029,CST-1368DR,4248,4601,11493,01.226,552
2023-07-17T14:10:59,42.805,6.029,CST-1368DR,4248,4600,11491,01.227,552
2023-07-17T14:14:00,42.805,6.029,CST-1368DR,4248,4599,11487,01.228,552
2023-07-17T14:17:02,42.805,6.029,CST-1368DR,4248,4607,11509,01.221,552
2023-07-17T14:20:03,42.805,6.029,CST-1368DR,4248,4601,11494,01.226,552
2023-07-17T14:23:05,42.805,6.029,CST-1368DR,4248,4601,11493,01.226,552
2023-07-17T14:26:07,42.805,6.029,CST-1368DR,4248,4601,11492,01.227,552
2023-07-17T14:29:08,42.805,6.029,CST-1368DR,4248,4598,11486,01.229,552
2023-07-17T14:32:10,42.805,6.029,CST-1368DR,4248,4599,11488,01.228,552
2023-07-17T14:35:12,42.805,6.029,CST-1368DR,4248,4600,11490,01.227,552
2023-07-17T14:38:14,42.805,6.029,CST-1368DR,4248,4601,11492,01.227,552
2023-07-17T14:41:15,42.805,6.029,CST-1368DR,4248,4601,11492,01.227,552
2023-07-17T14:44:17,42.805,6.029,CST-1368DR,4248,4600,11491,01.227,552
2023-07-17T14:47:18,42.805,6.029,CST-1368DR,4248,4612,11520,01.217,552
2023-07-17T14:50:20,42.805,6.029,CST-1368DR,4248,4601,11494,01.226,552
2023-07-17T14:53:22,42.805,6.029,CST-1368DR,4248,4600,11490,01.227,552
2023-07-17T14:56:23,42.805,6.029,CST-1368DR,4248,4598,11485,01.229,552
2023-07-17T14:59:25,42.805,6.029,CST-1368DR,4248,4600,11491,01.227,552
2023-07-17T15:02:26,42.805,6.029,CST-1368DR,4248,4601,11492,01.227,552
2023-07-17T15:05:28,42.805,6.029,CST-1368DR,4248,4601,11492,01.227,552
2023-07-17T15:08:29,42.805,6.029,CST-1368DR,4248,4598,11485,01.229,552
2023-07-17T15:11:31,42.805,6.029,CST-1368DR,4248,4600,11491,01.227,552
2023-07-17T15:14:33,42.805,6.029,CST-1368DR,4248,4602,11495,01.226,552
2023-07-17T15:17:34,42.805,6.029,CST-1368DR,4248,4608,11511,01.220,552
2023-07-17T15:20:36,42.805,6.029,CST-1368DR,4248,4608,11510,01.220,552
2023-07-17T15:23:37,42.805,6.029,CST-1368DR,4248,4608,11511,01.220,552
2023-07-17T15:26:39,42.805,6.029,CST-1368DR,4248,4608,11510,01.220,552
2023-07-17T15:29:40,42.805,6.029,CST-1368DR,4248,4608,11511,01.220,552
2023-07-17T15:32:42,42.805,6.029,CST-1368DR,4248,4608,11511,01.220,552
2023-07-17T15:35:44,42.805,6.029,CST-1368DR,4248,4608,11510,01.220,552
2023-07-17T15:38:45,42.805,6.029,CST-1368DR,4248,4608,11511,01.220,552
2023-07-17T15:41:47,42.805,6.029,CST-1368DR,4248,4608,11510,01.220,552
2023-07-17T15:44:48,42.805,6.029,CST-1368DR,4248,4608,11510,01.220,552
2023-07-17T15:47:50,42.805,6.029,CST-1368DR,4248,4608,11510,01.220,552
2023-07-17T15:50:52,42.805,6.029,CST-1368DR,4248,4609,11512,01.220,552
2023-07-17T15:53:53,42.805,6.029,CST-1368DR,4248,4608,11511,01.220,552
2023-07-17T15:56:55,42.805,6.029,CST-1368DR,4248,4609,11514,01.219,552
2023-07-17T15:59:56,42.805,6.029,CST-1368DR,4248,4608,11511,01.220,552
2023-07-17T16:02:58,42.805,6.029,CST-1368DR,4248,4609,11513,01.219,552
2023-07-17T16:05:59,42.805,6.029,CST-1368DR,4248,4609,11513,01.219,552
2023-07-17T16:09:01,42.805,6.029,CST-1368DR,4248,4608,11510,01.220,552
2023-07-17T16:12:03,42.805,6.029,CST-1368DR,4248,4609,11512,01.220,552
2023-07-17T16:15:04,42.805,6.029,CST-1368DR,4248,4608,11511,01.220,552
2023-07-17T16:18:06,42.805,6.029,CST-1368DR,4248,4609,11514,01.219,552
2023-07-17T16:21:07,42.805,6.029,CST-1368DR,4248,4609,11512,01.220,552
2023-07-17T16:24:09,42.805,6.029,CST-1368DR,4248,4610,11515,01.219,552
2023-07-17T16:27:11,42.805,6.029,CST-1368DR,4248,4609,11514,01.219,552
2023-07-17T16:30:13,42.805,6.029,CST-1368DR,4248,4609,11513,01.219,552
2023-07-17T16:33:15,42.805,6.029,CST-1368DR,4248,4609,11514,01.219,552
2023-07-17T16:36:16,42.805,6.029,CST-1368DR,4248,4609,11513,01.219,552